Stations météo

réclame
Mon MeteoGroup
Europlatform, Pays-Bas (6321): Température de l'air & dewpoint: 19.09.2018 09:00:00 - 25.09.2018 09:00:00 (CEST)Europlatform, Pays-Bas (6321): water temperature: 19.09.2018 09:00:00 - 25.09.2018 09:00:00 (CEST)Europlatform, Pays-Bas (6321): Vitesse du vent & gusts: 19.09.2018 09:00:00 - 25.09.2018 09:00:00 (CEST)Europlatform, Pays-Bas (6321): Direction du vent: 19.09.2018 09:00:00 - 25.09.2018 09:00:00 (CEST)Europlatform, Pays-Bas (6321): reduced air pressure: 19.09.2018 09:00:00 - 25.09.2018 09:00:00 (CEST)Europlatform, Pays-Bas (6321): visibility: 19.09.2018 09:00:00 - 25.09.2018 09:00:00 (CEST)
Date & Time tt [°C] td [°C] tw [°C] ff [km/h] ff [knt] fx [km/h] fx [knt] dd ppp [hPa] vv [km]
25.09.2018 09:00:00 14,2 4,4 16,4 9 5 14 8 N 1038,4 50
25.09.2018 08:00:00 13,7 4,5 16,4 13 7 22 12 N 1038,1 50
25.09.2018 07:00:00 13,7 4,7 16,4 16 9 25 14 N 1038,0 50
25.09.2018 06:00:00 13,6 5,0 16,5 18 10 25 14 NNW 1037,8 50
25.09.2018 05:00:00 13,6 4,3 16,5 22 12 25 14 NNW 1038,0 50
25.09.2018 04:00:00 13,7 5,3 16,5 21 11 29 16 NW 1037,9 50
25.09.2018 03:00:00 13,7 5,6 16,5 16 9 22 12 NW 1037,9 49
25.09.2018 02:00:00 13,7 5,5 16,5 18 10 25 14 NW 1038,0 48
25.09.2018 01:00:00 13,5 5,7 16,5 22 12 32 18 NNW 1038,3 48
25.09.2018 00:00:00 13,5 5,5 16,6 26 14 32 18 NNW 1038,3 50
24.09.2018 23:00:00 13,5 5,9 16,5 22 12 29 16 NNW 1037,9 50
24.09.2018 22:00:00 13,1 4,3 16,5 26 14 32 18 NNW 1037,6 50
24.09.2018 21:00:00 13,4 5,2 16,5 29 16 40 21 NW 1037,1 50
24.09.2018 20:00:00 13,4 4,1 16,5 28 15 36 19 NW 1036,8 50
24.09.2018 19:00:00 13,4 3,7 16,6 31 17 36 19 NW 1036,4 50
24.09.2018 18:00:00 13,6 4,6 16,6 28 15 36 19 NW 1036,5 49
24.09.2018 17:00:00 13,9 4,5 16,6 29 16 36 19 NW 1036,6 50
24.09.2018 16:00:00 13,9 3,6 16,6 31 17 40 21 NW 1036,5 50
24.09.2018 15:00:00 13,9 3,6 16,6 34 18 40 21 NW 1036,4 50
24.09.2018 14:00:00 14,1 6,0 16,6 31 17 40 21 NW 1036,3 50
24.09.2018 13:00:00 13,8 4,7 16,6 35 19 43 23 NW 1035,7 50
24.09.2018 12:00:00 13,3 6,8 16,5 39 21 47 25 NW 1035,3 45
24.09.2018 11:00:00 13,6 6,7 16,6 42 23 50 27 NW 1034,7 50
24.09.2018 10:00:00 12,3 7,5 16,6 37 20 58 31 WNW 1034,1 11
24.09.2018 09:00:00 13,7 7,8 16,6 41 22 47 25 WNW 1033,1 50
24.09.2018 08:00:00 13,5 7,1 17,0 41 22 47 25 WNW 1032,1 48
24.09.2018 07:00:00 12,2 7,0 16,6 46 25 54 29 WNW 1031,9 19
24.09.2018 06:00:00 13,7 5,0 16,6 41 22 47 25 WNW 1031,3 48
24.09.2018 05:00:00 13,8 5,7 16,6 41 22 50 27 NW 1030,7 50
24.09.2018 04:00:00 13,8 7,0 17,0 41 22 47 25 NNW 1029,9 10
24.09.2018 03:00:00 13,2 6,1 17,0 42 23 50 27 NW 1029,4 10
24.09.2018 02:00:00 13,8 6,4 17,0 41 22 61 33 NW 1028,3 10
24.09.2018 01:00:00 13,8 4,9 17,0 44 24 54 29 NNW 1027,2 10
24.09.2018 00:00:00 13,9 4,5 17,0 48 26 54 29 NNW 1026,2 10
23.09.2018 23:00:00 14,1 6,0 17,0 46 25 65 35 NNW 1025,1 10
23.09.2018 22:00:00 13,4 6,8 16,8 42 23 76 41 NNW 1023,8 10
23.09.2018 21:00:00 13,8 6,6 17,0 48 26 54 29 NNW 1021,8 10
23.09.2018 20:00:00 12,7 7,5 17,0 61 33 68 37 N 1020,1 10
23.09.2018 19:00:00 13,6 6,3 17,0 57 31 65 35 NNW 1018,4 10
23.09.2018 18:00:00 12,2 7,4 17,0 44 24 54 29 WNW 1017,3 9
23.09.2018 17:00:00 12,6 6,1 17,0 39 21 58 31 NNW 1016,3 10
23.09.2018 16:00:00 11,3 8,1 16,8 44 24 54 29 NNW 1015,1 10
23.09.2018 15:00:00 11,7 6,7 17,0 54 29 58 31 N 1013,9 10
23.09.2018 14:00:00 12,3 10,1 17,0 52 28 61 33 NNW 1013,0 10
23.09.2018 13:00:00 12,3 10,0 17,0 29 16 36 19 NNE 1012,8 10
23.09.2018 12:00:00 12,6 9,5 16,8 26 14 32 18 NNE 1012,1 10
23.09.2018 11:00:00 12,5 10,0 17,0 18 10 32 18 NE 1011,8 10
23.09.2018 10:00:00 12,2 11,0 17,0 21 11 32 18 E 1011,2 8
23.09.2018 09:00:00 12,1 11,0 17,0 29 16 36 19 NNE 1012,0 4,3
23.09.2018 08:00:00 13,2 10,0 17,0 8 4 14 8 NE 1012,2 10
23.09.2018 07:00:00 13,3 9,8 17,0 11 6 18 10 NE 1012,3 10
23.09.2018 06:00:00 13,5 10,4 16,8 11 6 18 10 E 1012,6 10
23.09.2018 05:00:00 13,2 10,6 17,0 15 8 22 12 ESE 1012,5 10
23.09.2018 04:00:00 13,2 9,9 17,0 15 8 18 10 SE 1013,3 10
23.09.2018 03:00:00 13,4 10,2 17,0 16 9 22 12 SE 1013,8 10
23.09.2018 02:00:00 13,4 10,1 17,0 15 8 22 12 SSE 1014,5 10
23.09.2018 01:00:00 13,2 10,0 17,0 21 11 22 12 SSE 1015,0 10
23.09.2018 00:00:00 12,8 10,5 17,0 16 9 29 16 S 1015,3 10
22.09.2018 23:00:00 13,4 9,4 17,0 11 6 18 10 S 1016,1 10
22.09.2018 22:00:00 12,9 8,7 17,0 13 7 22 12 SSW 1016,8 10
22.09.2018 21:00:00 13,0 9,2 17,0 22 12 32 18 SSW 1017,3 10
22.09.2018 20:00:00 12,9 8,7 16,9 28 15 32 18 SSW 1017,4 10
22.09.2018 19:00:00 13,0 8,4 17,0 29 16 36 19 SW 1017,6 10
22.09.2018 18:00:00 13,3 7,5 17,0 34 18 40 21 SW 1017,7 10
22.09.2018 17:00:00 13,6 7,3 17,0 39 21 43 23 SW 1018,7 10
22.09.2018 16:00:00 14,7 6,6 17,0 37 20 40 21 WSW 1018,4 10
22.09.2018 15:00:00 14,8 8,4 17,0 31 17 36 19 WSW 1018,4 10
22.09.2018 14:00:00 14,7 8,8 17,0 35 19 40 21 WSW 1018,8 10
22.09.2018 13:00:00 15,0 8,7 17,0 34 18 40 21 W 1018,6 10
22.09.2018 12:00:00 15,1 9,0 17,0 31 17 36 19 WSW 1018,6 10
22.09.2018 11:00:00 15,0 7,9 17,0 28 15 36 19 WSW 1018,7 10
22.09.2018 10:00:00 14,7 8,8 17,0 34 18 40 21 WSW 1018,4 10
22.09.2018 09:00:00 14,7 8,1 17,0 35 19 40 21 WSW 1018,4 10
22.09.2018 08:00:00 14,8 9,3 17,0 34 18 40 21 WSW 1018,1 10
22.09.2018 07:00:00 14,6 8,4 17,0 37 20 40 21 WSW 1018,0 10
22.09.2018 06:00:00 14,9 7,5 17,0 41 22 47 25 W 1017,9 10
22.09.2018 05:00:00 15,0 7,6 17,0 44 24 47 25 W 1017,6 10
22.09.2018 04:00:00 15,0 7,6 17,0 46 25 54 29 W 1017,4 10
22.09.2018 03:00:00 14,9 7,1 17,0 52 28 61 33 W 1017,0 10
22.09.2018 02:00:00 15,0 7,2 17,0 55 30 68 37 W 1016,8 10
22.09.2018 01:00:00 15,1 7,3 17,0 63 34 68 37 W 1016,2 10
22.09.2018 00:00:00 15,0 6,6 17,0 68 37 76 41 W 1015,3 10
21.09.2018 23:00:00 15,5 7,2 17,1 57 31 83 45 W 1014,0 10
21.09.2018 22:00:00 16,2 7,7 17,0 67 36 76 41 W 1013,0 10
21.09.2018 21:00:00 16,5 6,8 17,0 68 37 76 41 W 1011,9 10
21.09.2018 20:00:00 15,8 9,2 17,0 78 42 86 47 WSW 1011,0 10
21.09.2018 19:00:00 16,0 7,6 17,0 70 38 86 47 WSW 1010,1 10
21.09.2018 18:00:00 15,6 7,7 17,0 74 40 86 47 WSW 1009,8 10
21.09.2018 17:00:00 15,8 7,2 17,0 63 34 72 39 SW 1009,5 10
21.09.2018 16:00:00 15,3 6,6 17,0 65 35 68 37 SW 1009,6 10
21.09.2018 15:00:00 14,7 6,5 17,0 65 35 68 37 WSW 1009,2 10
21.09.2018 14:00:00 14,3 6,7 17,0 55 30 68 37 WSW 1008,8 10
21.09.2018 13:00:00 14,3 7,9 17,0 55 30 61 33 WSW 1007,8 10
21.09.2018 12:00:00 13,9 7,5 17,0 59 32 68 37 WSW 1006,7 10
21.09.2018 11:00:00 14,0 8,1 17,0 57 31 68 37 WSW 1005,3 10
21.09.2018 10:00:00 14,1 8,2 17,0 61 33 72 39 W 1003,8 10
21.09.2018 09:00:00 15,6 9,2 17,0 68 37 76 41 WSW 1002,6 10
21.09.2018 08:00:00 16,3 11,0 17,0 70 38 86 47 WSW 1001,4 10
21.09.2018 07:00:00 17,5 11,5 17,3 72 39 83 45 SW 999,8 4,3
21.09.2018 06:00:00 16,9 15,3 17,0 68 37 79 43 S 998,1 10
21.09.2018 05:00:00 19,3 14,8 17,0 70 38 79 43 S 998,7 10
21.09.2018 04:00:00 19,5 14,6 17,0 61 33 68 37 S 999,4 10
21.09.2018 03:00:00 19,5 15,1 17,0 55 30 65 35 S 1001,5 10
21.09.2018 02:00:00 19,8 15,3 17,0 52 28 54 29 S 1003,1 10
21.09.2018 01:00:00 20,2 15,2 17,0 50 27 54 29 S 1004,3 10
21.09.2018 00:00:00 20,3 15,5 17,0 41 22 47 25 S 1005,5 10
20.09.2018 23:00:00 19,6 16,2 17,0 31 17 36 19 S 1006,6 10
20.09.2018 22:00:00 19,7 15,8 17,0 31 17 36 19 S 1007,3 10
20.09.2018 21:00:00 19,2 16,3 17,0 29 16 36 19 S 1008,7 10
20.09.2018 20:00:00 19,1 16,0 17,0 31 17 43 23 SSW 1009,5 10
20.09.2018 19:00:00 19,3 15,5 17,0 39 21 47 25 SSW 1010,3 10
20.09.2018 18:00:00 19,4 15,3 17,0 48 26 54 29 SSW 1011,7 10
20.09.2018 17:00:00 18,9 15,5 17,0 44 24 50 27 SSW 1012,2 10
20.09.2018 16:00:00 18,8 15,5 17,0 41 22 54 29 SSW 1012,8 10
20.09.2018 15:00:00 18,9 15,7 17,0 46 25 54 29 SSW 1013,2 10
20.09.2018 14:00:00 18,6 15,4 17,0 55 30 61 33 SSW 1014,1 10
20.09.2018 13:00:00 18,7 15,5 17,0 55 30 58 31 SSW 1014,3 10
20.09.2018 12:00:00 18,5 15,8 17,0 48 26 58 31 SSW 1014,4 10
20.09.2018 11:00:00 18,4 16,2 17,0 50 27 58 31 SSW 1014,2 10
20.09.2018 10:00:00 18,5 15,7 17,0 48 26 58 31 SSW 1014,5 10
20.09.2018 09:00:00 18,5 16,0 17,0 41 22 54 29 S 1014,5 10
20.09.2018 08:00:00 18,6 16,3 17,0 42 23 54 29 SSW 1014,4 10
20.09.2018 07:00:00 18,6 15,5 17,0 42 23 50 27 SSW 1014,5 10
20.09.2018 06:00:00 18,5 16,0 17,0 44 24 50 27 SSW 1014,9 10
20.09.2018 05:00:00 18,6 15,8 17,0 42 23 50 27 SSW 1015,2 10
20.09.2018 04:00:00 18,6 15,8 17,0 44 24 50 27 SSW 1015,3 10
20.09.2018 03:00:00 19,0 14,9 17,0 44 24 50 27 SSW 1015,1 10
20.09.2018 02:00:00 19,1 15,3 17,0 44 24 54 29 SSW 1015,1 10
20.09.2018 01:00:00 19,3 15,3 17,0 48 26 54 29 SSW 1015,5 10
20.09.2018 00:00:00 19,5 15,1 17,0 52 28 65 35 SSW 1015,7 10
19.09.2018 23:00:00 19,7 15,3 17,0 57 31 65 35 SSW 1015,8 10
19.09.2018 22:00:00 19,4 16,0 17,0 57 31 61 33 SSW 1015,8 10
19.09.2018 21:00:00 19,5 15,8 17,0 57 31 68 37 SSW 1015,7 10
19.09.2018 20:00:00 19,9 15,7 17,0 63 34 72 39 SSW 1015,3 10
19.09.2018 19:00:00 20,1 15,5 17,0 63 34 68 37 SSW 1014,9 10
19.09.2018 18:00:00 20,0 15,3 17,0 59 32 68 37 SSW 1014,9 10
19.09.2018 17:00:00 19,5 15,9 17,0 54 29 65 35 SSW 1014,7 10
19.09.2018 16:00:00 19,4 15,9 17,0 59 32 68 37 SSW 1014,6 10
19.09.2018 15:00:00 19,4 15,4 17,0 54 29 61 33 SSW 1014,5 10
19.09.2018 14:00:00 18,9 15,4 17,0 48 26 58 31 S 1014,5 10
19.09.2018 13:00:00 18,5 15,8 17,0 52 28 61 33 S 1014,3 10
19.09.2018 12:00:00 18,2 15,8 17,0 48 26 54 29 SSW 1015,0 10
19.09.2018 11:00:00 18,4 16,2 17,0 44 24 50 27 SSW 1014,9 10
19.09.2018 10:00:00 18,1 15,5 17,0 35 19 40 21 S 1014,6 10
19.09.2018 09:00:00 17,8 15,8 17,0 34 18 36 19 S 1014,0 10

tt = Température de l'air
td = dewpoint
tw = water temperature
ff = Vitesse du vent
fx = gusts
dd = Direction du vent
ppp = reduced air pressure
vv = visibility

stations d'obs. à proximité